"2016-01-04 00:00:00",1254171,4.3,197.2,9.66,1.41,12.07,102.3737,5.357,6.594,16.07,0,110,13.16,6.13,159.2
"2016-01-04 00:00:30",1254172,3.701,187.5,13.23,1.159,9.83,102.3711,5.351,6.426,16.02,0,110,13.16,6.12,149.5
"2016-01-04 00:01:00",1254173,2.872,182.5,5.054,0.337,8.08,102.3598,5.322,6.355,15.52,0,109.9,13.21,6.09,144.5
"2016-01-04 00:01:30",1254174,2.541,186.9,3.91,0.278,8.01,102.344,5.282,6.336,15.47,0,109.9,13.2,6.05,148.9
"2016-01-04 00:02:00",1254175,3.429,191.8,6.172,1.334,9.97,102.3398,5.271,6.439,15.73,0,109.9,13.16,6.04,153.8
"2016-01-04 00:02:30",1254176,4.245,194.5,6.803,1.587,12.03,102.3398,5.271,6.544,15.98,0,109.9,13.16,6.04,156.5
"2016-01-04 00:03:00",1254177,4.8,191.4,8.97,1.428,12.57,102.3375,5.265,6.558,16.05,0,110,13.16,6.04,153.4
"2016-01-04 00:03:30",1254178,5.017,192.9,8.07,1.375,12.08,102.3242,5.231,6.523,15.93,0,110,13.16,6.00,154.9
"2016-01-04 00:04:00",1254179,2.957,182.9,2.116,0.269,8.2,102.3126,5.202,6.285,15.66,0,110,13.21,5.97,144.9
"2016-01-04 00:04:30",1254180,2.669,186.4,3.615,0.209,7.851,102.3059,5.184,6.251,15.76,0,110,13.21,5.95,148.4
"2016-01-04 00:05:00",1254181,3.486,183.3,2.907,0.167,8.44,102.3062,5.185,6.279,15.79,0,110,13.21,5.96,145.3
"2016-01-04 00:05:30",1254182,5.01,188,7.593,1.339,11.84,102.3064,5.186,6.416,15.71,0,110,13.16,5.96,150.0
"2016-01-04 00:06:00",1254183,5.453,191,7.018,1.405,12.9,102.2982,5.165,6.44,15.74,0,110,13.16,5.93,153.0
"2016-01-04 00:06:30",1254184,5.229,194.4,6.928,1.355,12.96,102.29,5.144,6.448,15.72,0,110,13.16,5.91,156.4
"2016-01-04 00:07:00",1254185,4.489,188.7,7.613,1.273,10.31,102.2807,5.12,6.29,15.58,0,110,13.16,5.89,150.7
"2016-01-04 00:07:30",1254186,3.746,183,1.064,0.145,8.48,102.2766,5.109,6.167,15.48,0,110,13.21,5.88,145.0
"2016-01-04 00:08:00",1254187,4.046,180.2,1.809,0.207,8.62,102.2751,5.106,6.168,15.61,0,110,13.21,5.88,142.2
"2016-01-04 00:08:30",1254188,4.911,183.3,6.199,1.3,10.63,102.2763,5.109,6.252,16.06,0,109.9,13.16,5.88,145.3
"2016-01-04 00:09:00",1254189,5.559,184.7,7.115,1.496,12.06,102.2737,5.102,6.357,16.78,0,110,13.16,5.87,146.7
"2016-01-04 00:09:30",1254190,5.984,187.6,7.782,1.464,12.95,102.2768,5.11,6.404,17.78,0,109.9,13.16,5.88,149.6
"2016-01-04 00:10:00",1254191,6.231,185.4,7.311,1.359,13.05,102.293,5.151,6.425,17.8,0,109.9,13.16,5.92,147.4
"2016-01-04 00:10:30",1254192,4.607,177,2.944,0.775,9.2,102.3062,5.185,6.197,17.99,0,110,13.16,5.96,139.0
"2016-01-04 00:11:00",1254193,4.019,177.1,0.706,0.097,8.85,102.3114,5.198,6.171,17.98,0,110,13.21,5.97,139.1
"2016-01-04 00:11:30",1254194,4.842,181.2,5.771,1.294,10.42,102.3113,5.198,6.284,17.4,0,110,13.16,5.97,143.2
"2016-01-04 00:12:00",1254195,5.167,181,7.177,1.495,11.73,102.3295,5.245,6.398,16.4,0,110,13.16,6.02,143.0
"2016-01-04 00:12:30",1254196,5.614,185.9,7.565,1.413,13.28,102.3465,5.288,6.465,16.31,0,110,13.16,6.06,147.9
"2016-01-04 00:13:00",1254197,5.414,189.7,6.679,1.374,12.86,102.3502,5.297,6.456,16.04,0,110,13.15,6.07,151.7
"2016-01-04 00:13:30",1254198,4.438,182.4,7.063,1.481,10.13,102.3499,5.297,6.352,15.82,0,109.9,13.15,6.07,144.4
"2016-01-04 00:14:00",1254199,2.761,177.2,3.239,0.188,7.886,102.3621,5.328,6.255,15.76,0,109.9,13.2,6.10,139.2
"2016-01-04 00:14:30",1254200,2.88,180.8,2.432,0.271,8.15,102.3688,5.345,6.262,16.04,0,109.9,13.2,6.12,142.8
"2016-01-04 00:15:00",1254201,4.012,183.4,7.712,1.195,10.44,102.3813,5.377,6.45,15.96,0,109.9,13.15,6.15,145.4
"2016-01-04 00:15:30",1254202,4.752,190.2,7.704,1.436,11.92,102.3861,5.389,6.531,15.97,0,110,13.15,6.16,152.2
"2016-01-04 00:16:00",1254203,5.248,189.5,7.054,1.445,12.69,102.3876,5.393,6.555,16.18,0,109.9,13.16,6.16,151.5
"2016-01-04 00:16:30",1254204,5.151,183.5,10.31,1.518,11.62,102.3864,5.39,6.491,15.59,0,109.9,13.16,6.16,145.5
"2016-01-04 00:17:00",1254205,4.008,181.3,8.32,1.247,10.09,102.3861,5.389,6.419,15.36,0,109.9,13.16,6.16,143.3
"2016-01-04 00:17:30",1254206,3.383,177.2,5.504,0.25,8.35,102.3887,5.396,6.308,15.34,0,109.9,13.21,6.17,139.2
"2016-01-04 00:18:00",1254207,3.155,175.7,3.235,0.303,8.62,102.3881,5.394,6.332,15.42,0,109.9,13.21,6.17,137.7
"2016-01-04 00:18:30",1254208,4.583,183.9,7.777,1.445,11.33,102.3916,5.403,6.55,15.57,0,109.9,13.16,6.17,145.9
"2016-01-04 00:19:00",1254209,4.906,187.7,8.03,1.486,12.16,102.3916,5.403,6.568,15.81,0,110,13.16,6.17,149.7
"2016-01-04 00:19:30",1254210,4.717,190,7.168,1.486,11.7,102.3928,5.406,6.55,16.17,0,110,13.16,6.18,152.0
"2016-01-04 00:20:00",1254211,3.757,187.2,7.308,1.408,10.54,102.3945,5.411,6.564,16.48,0,109.9,13.16,6.18,149.2
"2016-01-04 00:20:30",1254212,3.278,183.3,5.143,0.9,8.68,102.3948,5.411,6.339,16.41,0,110,13.16,6.18,145.3
"2016-01-04 00:21:00",1254213,2.849,180.4,1.945,0.223,8.24,102.3954,5.413,6.35,16.29,0,109.9,13.21,6.18,142.4
"2016-01-04 00:21:30",1254214,3.375,183.1,9.09,1.308,9.84,102.3943,5.41,6.422,16.26,0,109.9,13.16,6.18,145.1
"2016-01-04 00:22:00",1254215,4.383,190.7,7.302,1.346,12.01,102.3841,5.384,6.59,16.51,0,110,13.16,6.15,152.7
"2016-01-04 00:22:30",1254216,3.99,187.4,7.747,1.407,11.27,102.3787,5.37,6.56,16.73,0,109.9,13.17,6.14,149.4
"2016-01-04 00:23:00",1254217,4.333,187.1,7.433,1.413,11.61,102.3762,5.364,6.502,16.75,0,109.9,13.16,6.13,149.1
"2016-01-04 00:23:30",1254218,3.858,183.3,7.747,1.368,10.27,102.3652,5.336,6.526,16.67,0,109.9,13.16,6.11,145.3
"2016-01-04 00:24:00",1254219,3.39,178.8,1.962,0.204,8.26,102.3658,5.337,6.323,16.31,0,109.9,13.21,6.11,140.8
"2016-01-04 00:24:30",1254220,4.311,180.8,6.048,1.38,9.99,102.3664,5.339,6.404,16.33,0,109.9,13.17,6.11,142.8
"2016-01-04 00:25:00",1254221,4.676,181.8,7.157,1.329,10.87,102.3664,5.339,6.491,16.33,0,109.9,13.17,6.11,143.8
"2016-01-04 00:25:30",1254222,4.862,183.3,7.666,1.414,10.96,102.3607,5.324,6.41,16.19,0,109.9,13.16,6.10,145.3
"2016-01-04 00:26:00",1254223,4.99,182.7,7.176,1.418,11,102.3539,5.307,6.461,16.28,0,109.9,13.17,6.08,144.7
"2016-01-04 00:26:30",1254224,4.826,184,7.374,1.431,11.84,102.3506,5.298,6.485,16.38,0,109.9,13.16,6.07,146.0
"2016-01-04 00:27:00",1254225,4.035,177.6,6.621,1.363,10.09,102.3503,5.298,6.375,16.3,0,109.9,13.17,6.07,139.6
"2016-01-04 00:27:30",1254226,2.915,174.2,1.458,0.112,8.51,102.3489,5.294,6.336,16.35,0,109.9,13.21,6.06,136.2
"2016-01-04 00:28:00",1254227,4.114,180.6,6.5,1.428,10.81,102.3449,5.284,6.409,16.61,0,109.9,13.16,6.05,142.6
"2016-01-04 00:28:30",1254228,2.86,174.7,5.315,1.038,9.12,102.3404,5.273,6.363,16.74,0,109.9,13.17,6.04,136.7
"2016-01-04 00:29:00",1254229,2.959,178.4,6.028,1.339,9.48,102.3353,5.26,6.447,17,0,109.9,13.16,6.03,140.4
"2016-01-04 00:29:30",1254230,4.094,184.9,7.242,1.415,11.49,102.3339,5.256,6.5,17.29,0,109.9,13.16,6.03,146.9
"2016-01-04 00:30:00",1254231,3.996,182.3,7.277,1.391,10.75,102.3354,5.26,6.409,17.16,0,109.9,13.16,6.03,144.3
"2016-01-04 00:30:30",1254232,2.711,175.5,1.118,0.108,8.26,102.3357,5.26,6.272,16.94,0,109.9,13.21,6.03,137.5
"2016-01-04 00:31:00",1254233,3.702,182.5,7.465,1.399,10.28,102.3351,5.259,6.376,17.16,0,109.9,13.16,6.03,144.5
"2016-01-04 00:31:30",1254234,3.059,179.4,6.362,1.315,9.39,102.3334,5.255,6.322,17.36,0,109.9,13.16,6.03,141.4
"2016-01-04 00:32:00",1254235,2.315,174.7,1.244,0.106,7.872,102.3227,5.227,6.21,17.41,0,109.9,13.21,6.00,136.7
"2016-01-04 00:32:30",1254236,3.203,176.9,6.377,1.187,9.29,102.3066,5.186,6.325,17.48,0,109.9,13.16,5.96,138.9
"2016-01-04 00:33:00",1254237,4.213,182.7,7.279,1.425,11.39,102.3026,5.176,6.419,17.48,0,109.9,13.16,5.95,144.7
"2016-01-04 00:33:30",1254238,4.787,181.2,7.539,1.49,11.65,102.3052,5.183,6.36,17.12,0,109.9,13.16,5.95,143.2
"2016-01-04 00:34:00",1254239,4.333,176.5,5.251,0.893,10.1,102.3052,5.183,6.334,16.38,0,109.9,13.17,5.95,138.5
"2016-01-04 00:34:30",1254240,5.465,181.3,7.478,1.438,11.32,102.3058,5.184,6.266,14.83,0,109.9,13.17,5.95,143.3
"2016-01-04 00:35:00",1254241,4.918,177.2,6.4,1.244,10.5,102.3038,5.179,6.246,14.3,0,109.9,13.17,5.95,139.2
"2016-01-04 00:35:30",1254242,4.068,172.2,1.43,0.036,9.03,102.3061,5.185,6.202,14.09,0,109.9,13.21,5.96,134.2
"2016-01-04 00:36:00",1254243,5.642,178.6,7.313,1.423,11.7,102.3055,5.183,6.316,14.17,0,109.9,13.17,5.95,140.6
"2016-01-04 00:36:30",1254244,5.377,178.1,6.891,1.424,12.3,102.3052,5.183,6.389,14.86,0,109.9,13.17,5.95,140.1
"2016-01-04 00:37:00",1254245,4.254,174.2,7.221,1.396,11.08,102.3069,5.187,6.383,15.85,0,109.9,13.17,5.96,136.2
"2016-01-04 00:37:30",1254246,4.6,173.9,7.453,1.406,11.2,102.3187,5.217,6.281,16.28,0,109.9,13.17,5.99,135.9
"2016-01-04 00:38:00",1254247,3.911,171.7,5.907,1.183,9.86,102.3304,5.247,6.258,16.43,0,109.9,13.17,6.02,133.7
"2016-01-04 00:38:30",1254248,3.505,169.9,0.706,0.106,8.48,102.338,5.266,6.162,16.04,0,109.9,13.21,6.04,131.9
"2016-01-04 00:39:00",1254249,4.412,174.9,6.398,1.279,9.95,102.34,5.271,6.258,15.28,0,109.9,13.17,6.04,136.9
"2016-01-04 00:39:30",1254250,5.265,179,7.041,1.421,12.28,102.3382,5.267,6.428,15.17,0,109.9,13.17,6.04,141.0
"2016-01-04 00:40:00",1254251,4.893,176.1,6.879,1.32,12.41,102.3396,5.27,6.443,15.9,0,109.9,13.17,6.04,138.1
"2016-01-04 00:40:30",1254252,3.698,172.1,7.206,1.469,10.84,102.3498,5.297,6.383,16.92,0,109.9,13.17,6.07,134.1
"2016-01-04 00:41:00",1254253,3.219,170.3,6.68,1.352,9.85,102.3546,5.309,6.39,17.59,0,109.9,13.17,6.08,132.3
"2016-01-04 00:41:30",1254254,2.321,167.2,0.528,0.071,7.669,102.3561,5.313,6.226,17.66,0,109.9,13.21,6.08,129.2
"2016-01-04 00:42:00",1254255,2.615,168.6,0.792,0.142,7.751,102.3524,5.303,6.219,17.55,0,109.9,13.21,6.07,130.6
"2016-01-04 00:42:30",1254256,3.7,172.4,6.84,1.228,9.53,102.3445,5.283,6.295,17.02,0,109.9,13.15,6.05,134.4
"2016-01-04 00:43:00",1254257,5.396,182.2,7.1,1.432,12.55,102.34,5.271,6.454,16.02,0,109.9,13.15,6.04,144.2
"2016-01-04 00:43:30",1254258,6.003,184.7,7.014,1.402,13.16,102.3406,5.273,6.497,14.73,0,109.9,13.15,6.04,146.7
"2016-01-04 00:44:00",1254259,5.683,182.6,6.804,1.442,12.18,102.3397,5.271,6.403,14.36,0,109.9,13.15,6.04,144.6
"2016-01-04 00:44:30",1254260,4.93,179,6.638,1.282,10.38,102.3405,5.273,6.323,14.25,0,109.9,13.15,6.04,141.0
"2016-01-04 00:45:00",1254261,4.168,174.1,0.771,0.08,8.76,102.3507,5.299,6.215,14.1,0,109.9,13.19,6.07,136.1
"2016-01-04 00:45:30",1254262,4.228,175.2,0.962,0.109,8.8,102.3609,5.325,6.225,14.09,0,109.9,13.18,6.10,137.2
"2016-01-04 00:46:00",1254263,5.878,183,7.677,1.424,12.13,102.3725,5.354,6.493,14.32,0,109.9,13.13,6.13,145.0
"2016-01-04 00:46:30",1254264,6.289,183.2,7.37,1.388,12.84,102.3745,5.36,6.491,14.21,0,109.9,13.12,6.13,145.2
"2016-01-04 00:47:00",1254265,6.26,184.6,7.079,1.351,13.23,102.379,5.371,6.56,14.21,0,109.9,13.12,6.14,146.6
"2016-01-04 00:47:30",1254266,5.889,181.7,7.077,1.378,11.33,102.3957,5.414,6.372,14.19,0,109.9,13.12,6.18,143.7
"2016-01-04 00:48:00",1254267,4.6,175.2,0.525,0.053,8.95,102.4081,5.445,6.29,14.21,0,109.9,13.17,6.22,137.2
"2016-01-04 00:48:30",1254268,4.709,176,0.374,0.055,8.87,102.4149,5.463,6.314,14.35,0,109.9,13.16,6.23,138.0
"2016-01-04 00:49:00",1254269,6.24,185.4,7.551,1.475,11.97,102.4307,5.503,6.546,15.6,0,109.9,13.11,6.27,147.4
"2016-01-04 00:49:30",1254270,6.84,188.5,6.929,1.42,13.14,102.4418,5.531,6.63,17.87,0,109.9,13.11,6.30,150.5
"2016-01-04 00:50:00",1254271,6.789,186.6,7.467,1.362,13.06,102.4403,5.528,6.634,19.22,0,109.9,13.11,6.30,148.6
"2016-01-04 00:50:30",1254272,6.573,187.8,7.216,1.446,12.78,102.4573,5.571,6.657,19.77,0,109.9,13.11,6.34,149.8
"2016-01-04 00:51:00",1254273,4.745,180.1,0.168,0.04,9.23,102.4746,5.615,6.502,19.44,0,109.9,13.16,6.39,142.1
"2016-01-04 00:51:30",1254274,5.358,183.1,6.239,1.178,10.4,102.4757,5.618,6.55,19.2,0,109.9,13.11,6.39,145.1
"2016-01-04 00:52:00",1254275,5.632,183.9,6.924,1.37,10.62,102.4799,5.629,6.612,19.68,0,109.9,13.11,6.40,145.9
"2016-01-04 00:52:30",1254276,5.587,185.8,6.899,1.413,11.36,102.4929,5.662,6.716,18.88,0,109.9,13.11,6.43,147.8
"2016-01-04 00:53:00",1254277,6.041,189.4,7.098,1.44,12.81,102.5051,5.693,6.758,18.01,0,109.9,13.11,6.47,151.4
"2016-01-04 00:53:30",1254278,5.615,188.8,7.319,1.442,12.42,102.5087,5.702,6.782,17.12,0,109.9,13.11,6.47,150.8
"2016-01-04 00:54:00",1254279,4.611,183,7.391,1.407,10.49,102.5084,5.702,6.613,15.98,0,109.9,13.11,6.47,145.0
"2016-01-04 00:54:30",1254280,4.039,181.2,6.323,1.115,9.66,102.5079,5.7,6.652,15.6,0,109.9,13.1,6.47,143.2
"2016-01-04 00:55:00",1254281,4.558,184.1,7.167,1.411,10.4,102.5155,5.72,6.694,15.75,0,109.9,13.1,6.49,146.1
"2016-01-04 00:55:30",1254282,4.31,181.6,6.85,1.343,10.05,102.5217,5.736,6.728,15.75,0,109.9,13.11,6.51,143.6
"2016-01-04 00:56:00",1254283,3.918,180.2,5.775,1.159,9.45,102.5251,5.744,6.668,16.03,0,109.9,13.1,6.52,142.2
"2016-01-04 00:56:30",1254284,5.063,187.3,7.29,1.415,11.85,102.5225,5.738,6.874,16.33,0,109.9,13.1,6.51,149.3
"2016-01-04 00:57:00",1254285,5.226,187.2,7.214,1.428,12.08,102.5222,5.737,6.849,16.19,0,109.9,13.1,6.51,149.2
"2016-01-04 00:57:30",1254286,3.892,180.7,4.373,0.878,9,102.5248,5.744,6.631,15.69,0,109.9,13.1,6.52,142.7
"2016-01-04 00:58:00",1254287,5.164,186.3,7.332,1.443,11.14,102.5213,5.735,6.805,15.71,0,109.9,13.1,6.51,148.3
"2016-01-04 00:58:30",1254288,4.474,183,6.511,1.305,10.24,102.5228,5.738,6.786,15.62,0,109.9,13.1,6.51,145.0
"2016-01-04 00:59:00",1254289,4.017,180,5.096,0.99,9.16,102.5208,5.733,6.642,15.47,0,109.9,13.1,6.51,142.0
"2016-01-04 00:59:30",1254290,4.473,183.2,6.601,1.295,10.2,102.5112,5.709,6.79,15.71,0,109.9,13.1,6.48,145.2
"2016-01-04 01:00:00",1254291,5.338,190.3,7.144,1.405,11.55,102.5067,5.697,6.826,15.67,0,109.9,13.1,6.47,152.3
"2016-01-04 01:00:30",1254292,5.303,193.2,7.687,1.427,11.68,102.5055,5.694,6.867,16.11,0,109.9,13.1,6.47,155.2
"2016-01-04 01:01:00",1254293,5.038,192.2,7.183,1.418,11.16,102.5041,5.691,6.741,16.93,0,109.9,13.1,6.46,154.2
"2016-01-04 01:01:30",1254294,4.837,191.5,7.135,1.4,10.92,102.5035,5.689,6.763,16.96,0,109.9,13.09,6.46,153.5
"2016-01-04 01:02:00",1254295,4.585,191,7.075,1.346,10.61,102.5029,5.688,6.801,16.43,0,109.9,13.09,6.46,153.0
"2016-01-04 01:02:30",1254296,5.156,194.5,7.45,1.399,11.82,102.5029,5.688,6.812,15.97,0,109.9,13.09,6.46,156.5
"2016-01-04 01:03:00",1254297,3.573,186.5,0.347,0.054,8.71,102.5027,5.687,6.692,15.65,0,109.9,13.14,6.46,148.5
"2016-01-04 01:03:30",1254298,5.254,194.5,7.248,1.411,11.71,102.4933,5.663,6.804,15.74,0,109.9,13.09,6.43,156.5
"2016-01-04 01:04:00",1254299,4.799,192.8,7.104,1.45,10.88,102.4896,5.654,6.822,16,0,109.9,13.09,6.43,154.8
"2016-01-04 01:04:30",1254300,4.801,193.9,7.079,1.395,11.2,102.4857,5.644,6.804,16.83,0,109.9,13.09,6.42,155.9
"2016-01-04 01:05:00",1254301,5.366,196.4,7.628,1.478,11.88,102.4834,5.638,6.79,17.8,0,109.9,13.09,6.41,158.4
"2016-01-04 01:05:30",1254302,5.244,196.3,7.118,1.446,11.38,102.4822,5.635,6.736,18.14,0,109.9,13.09,6.41,158.3
"2016-01-04 01:06:00",1254303,3.89,190.5,0.531,0.038,8.84,102.4769,5.621,6.666,18.06,0,109.9,13.14,6.39,152.5
"2016-01-04 01:06:30",1254304,4.697,193.2,6.514,1.322,10.39,102.4732,5.612,6.702,17.76,0,109.9,13.09,6.38,155.2
"2016-01-04 01:07:00",1254305,4.887,194.4,7.635,1.432,11.02,102.4672,5.596,6.744,16.66,0,109.9,13.1,6.37,156.4
"2016-01-04 01:07:30",1254306,5.08,197.2,7.489,1.486,12.08,102.4667,5.595,6.799,16.2,0,109.9,13.1,6.37,159.2
"2016-01-04 01:08:00",1254307,4.694,194.1,6.942,1.378,11.18,102.4658,5.593,6.768,16.19,0,110,13.1,6.36,156.1
"2016-01-04 01:08:30",1254308,5.459,194.3,7.515,1.434,12.24,102.4641,5.588,6.763,16.78,0,110,13.1,6.36,156.3
"2016-01-04 01:09:00",1254309,4.063,186,0.322,0.02,9.23,102.4635,5.587,6.603,18.44,0,110,13.15,6.36,148.0
"2016-01-04 01:09:30",1254310,4.563,188,5.969,1.061,10.16,102.4652,5.591,6.638,19.34,0,109.9,13.1,6.36,150.0
"2016-01-04 01:10:00",1254311,5.31,192.3,7.319,1.446,11.3,102.4638,5.588,6.727,19.01,0,109.9,13.1,6.36,154.3
"2016-01-04 01:10:30",1254312,5.538,195.7,7.222,1.368,13.08,102.4644,5.589,6.809,17.62,0,110,13.1,6.36,157.7
"2016-01-04 01:11:00",1254313,5.01,193.8,7.548,1.43,12.08,102.4621,5.583,6.729,16.32,0,109.9,13.1,6.35,155.8
"2016-01-04 01:11:30",1254314,3.866,189.5,6.284,1.328,10.4,102.4629,5.585,6.703,15.61,0,110,13.1,6.36,151.5
"2016-01-04 01:12:00",1254315,3.258,190.7,5.585,1.423,9.33,102.4624,5.584,6.615,15.58,0,109.9,13.1,6.36,152.7
"2016-01-04 01:12:30",1254316,2.084,192.4,2.234,0.151,7.322,102.46,5.578,6.551,16.73,0,109.9,13.15,6.35,154.4
"2016-01-04 01:13:00",1254317,3.32,188.4,7.445,1.48,9.08,102.4558,5.567,6.659,17.76,0,110,13.1,6.34,150.4
"2016-01-04 01:13:30",1254318,4.566,192,7.642,1.534,11.29,102.4513,5.556,6.753,17.34,0,110,13.1,6.33,154.0
"2016-01-04 01:14:00",1254319,5.109,194.1,7.354,1.404,12.59,102.4408,5.529,6.766,16.08,0,109.9,13.1,6.30,156.1
"2016-01-04 01:14:30",1254320,5.237,192.9,7.343,1.435,12.37,102.4327,5.508,6.753,15.67,0,109.9,13.1,6.28,154.9
"2016-01-04 01:15:00",1254321,4.182,185.9,6.545,1.283,10.62,102.4264,5.492,6.683,15.47,0,110,13.1,6.26,147.9
"2016-01-04 01:15:30",1254322,3.455,182.3,2.959,0.27,8.33,102.4279,5.496,6.521,15.31,0,110,13.15,6.27,144.3
"2016-01-04 01:16:00",1254323,3.238,181.7,0.661,0.088,7.993,102.4279,5.496,6.498,15.36,0,110,13.15,6.27,143.7
"2016-01-04 01:16:30",1254324,4.107,185.9,6.858,1.322,9.92,102.4267,5.493,6.676,15.69,0,109.9,13.1,6.26,147.9
"2016-01-04 01:17:00",1254325,5.07,189.4,7.276,1.387,12.28,102.4242,5.486,6.728,16.17,0,109.9,13.1,6.26,151.4
"2016-01-04 01:17:30",1254326,5.406,191.2,6.826,1.319,12.91,102.4134,5.459,6.748,16.39,0,110,13.1,6.23,153.2
"2016-01-04 01:18:00",1254327,5.053,191.3,7.263,1.419,11.82,102.4077,5.444,6.646,16.07,0,110,13.1,6.22,153.3
"2016-01-04 01:18:30",1254328,4.493,186.3,7.523,1.211,9.83,102.4041,5.435,6.493,16.28,0,110,13.1,6.21,148.3
"2016-01-04 01:19:00",1254329,3.855,180.9,0.326,0.045,8.27,102.3893,5.397,6.437,16.37,0,110,13.14,6.17,142.9
"2016-01-04 01:19:30",1254330,4.359,184.8,5.888,1.152,9.46,102.391,5.402,6.437,16.41,0,109.9,13.09,6.17,146.8
"2016-01-04 01:20:00",1254331,5.367,191.4,7.534,1.453,12.3,102.3908,5.401,6.676,17.05,0,110,13.09,6.17,153.4
"2016-01-04 01:20:30",1254332,5.799,193.4,7.24,1.383,13.17,102.3916,5.403,6.666,17.56,0,110,13.09,6.17,155.4
"2016-01-04 01:21:00",1254333,5.396,190.6,7.57,1.458,12.23,102.3882,5.395,6.604,17.92,0,109.9,13.09,6.17,152.6
"2016-01-04 01:21:30",1254334,4.871,187.7,6.412,1.276,10.72,102.3827,5.381,6.551,18.04,0,110,13.09,6.15,149.7
"2016-01-04 01:22:00",1254335,4.061,182.4,0.682,0.048,8.51,102.3756,5.363,6.377,18.2,0,109.9,13.14,6.13,144.4
"2016-01-04 01:22:30",1254336,3.881,181.4,1.463,0.058,8.45,102.3745,5.36,6.377,17.92,0,109.9,13.14,6.13,143.4
"2016-01-04 01:23:00",1254337,4.969,184.2,7.41,1.427,11.01,102.3671,5.341,6.515,17.47,0,109.9,13.09,6.11,146.2
"2016-01-04 01:23:30",1254338,5.304,185.8,7.183,1.423,12.18,102.3717,5.352,6.586,17.34,0,110,13.1,6.12,147.8
"2016-01-04 01:24:00",1254339,5.573,187.1,7.084,1.353,12.55,102.368,5.343,6.624,17.39,0,110,13.1,6.11,149.1
"2016-01-04 01:24:30",1254340,5.155,185.3,7.674,1.419,11.11,102.3683,5.344,6.566,17.17,0,109.9,13.1,6.11,147.3
"2016-01-04 01:25:00",1254341,4.559,181.6,6.592,1.16,9.19,102.3671,5.341,6.363,17,0,110,13.1,6.11,143.6
"2016-01-04 01:25:30",1254342,3.983,177.6,0.522,0.042,8.17,102.3663,5.339,6.353,17.1,0,109.9,13.15,6.11,139.6
"2016-01-04 01:26:00",1254343,4.71,181.7,6.285,1.247,9.52,102.3686,5.344,6.389,17.47,0,110,13.1,6.12,143.7
"2016-01-04 01:26:30",1254344,5.38,184.6,7.049,1.444,11.79,102.3689,5.345,6.615,18,0,110,13.1,6.12,146.6
"2016-01-04 01:27:00",1254345,5.645,184.5,6.638,1.375,13.14,102.368,5.343,6.618,17.59,0,110,13.1,6.11,146.5
"2016-01-04 01:27:30",1254346,4.754,179.5,7.339,1.453,11.96,102.3674,5.341,6.609,17.48,0,110,13.1,6.11,141.5
"2016-01-04 01:28:00",1254347,3.8,174.6,6.598,1.289,9.52,102.3668,5.34,6.443,17.79,0,110,13.1,6.11,136.6
"2016-01-04 01:28:30",1254348,3.024,170.6,0.5,0.039,7.766,102.3662,5.338,6.347,18.25,0,110,13.15,6.11,132.6
"2016-01-04 01:29:00",1254349,3.224,170.5,0.764,0.111,7.975,102.3657,5.337,6.326,18.26,0,110,13.15,6.11,132.5
"2016-01-04 01:29:30",1254350,4.443,177.4,6.891,1.355,10.04,102.3611,5.325,6.488,17.88,0,110,13.1,6.10,139.4
"2016-01-04 01:30:00",1254351,5.474,183.7,7.327,1.398,12.58,102.3566,5.314,6.572,17.74,0,109.9,13.1,6.08,145.7
"2016-01-04 01:30:30",1254352,5.925,186.6,6.865,1.295,12.71,102.3564,5.313,6.603,17.83,0,109.9,13.1,6.08,148.6
"2016-01-04 01:31:00",1254353,5.356,183,7.488,1.465,11.96,102.3487,5.294,6.499,17.61,0,110,13.1,6.06,145.0
"2016-01-04 01:31:30",1254354,3.598,174.9,0.64,0.046,8.38,102.3484,5.293,6.356,17.56,0,109.9,13.15,6.06,136.9
"2016-01-04 01:32:00",1254355,3.534,176.3,0.512,0.062,8.19,102.3479,5.292,6.32,17.5,0,109.9,13.15,6.06,138.3
"2016-01-04 01:32:30",1254356,3.473,176.7,0.564,0.039,8.41,102.3467,5.289,6.307,17.34,0,109.9,13.1,6.06,138.7
"2016-01-04 01:33:00",1254357,5.035,185.4,7.628,1.449,12.04,102.3481,5.292,6.575,17.57,0,110,13.1,6.06,147.4
"2016-01-04 01:33:30",1254358,5.378,185.8,6.584,1.29,12.53,102.3464,5.288,6.58,17.63,0,110,13.1,6.06,147.8
"2016-01-04 01:34:00",1254359,4.771,182,6.978,1.367,12.57,102.3432,5.28,6.592,17.91,0,109.9,13.1,6.05,144.0
"2016-01-04 01:34:30",1254360,3.712,176.4,7.019,1.408,10.08,102.345,5.284,6.413,18.41,0,110,13.1,6.05,138.4
"2016-01-04 01:35:00",1254361,2.775,173.2,0.29,0.057,8.02,102.3441,5.282,6.305,18.65,0,110,13.14,6.05,135.2
"2016-01-04 01:35:30",1254362,2.898,173.1,0.302,0.102,8.06,102.3458,5.286,6.297,18.36,0,109.9,13.14,6.06,135.1
"2016-01-04 01:36:00",1254363,3.381,173.6,2.762,0.776,8.64,102.3441,5.282,6.327,18.02,0,110,13.1,6.05,135.6
"2016-01-04 01:36:30",1254364,5.048,182.4,7.31,1.355,12.41,102.3435,5.28,6.529,17.96,0,109.9,13.1,6.05,144.4
"2016-01-04 01:37:00",1254365,4.624,180.2,7.097,1.399,12.4,102.3438,5.281,6.557,17.99,0,110,13.1,6.05,142.2
"2016-01-04 01:37:30",1254366,3.807,176.3,7.594,1.441,11.49,102.3435,5.28,6.497,18.38,0,110,13.1,6.05,138.3
"2016-01-04 01:38:00",1254367,2.865,172.1,6.142,1.238,9.21,102.343,5.279,6.376,19.34,0,109.9,13.09,6.05,134.1
"2016-01-04 01:38:30",1254368,2.096,168.1,0.473,0.026,7.482,102.3339,5.256,6.268,19.9,0,109.9,13.14,6.03,130.1
"2016-01-04 01:39:00",1254369,2.316,168.4,0.552,0.097,7.778,102.326,5.236,6.25,19.9,0,109.9,13.14,6.01,130.4
"2016-01-04 01:39:30",1254370,3.455,173.2,6.904,1.409,9.88,102.3125,5.201,6.358,19.56,0,110,13.1,5.97,135.2
"2016-01-04 01:40:00",1254371,3.625,174.4,7.094,1.463,11.28,102.3076,5.189,6.512,20.03,0,110,13.1,5.96,136.4
"2016-01-04 01:40:30",1254372,3.436,177.2,7.797,1.399,11.34,102.3108,5.197,6.48,20.54,0,109.9,13.1,5.97,139.2
"2016-01-04 01:41:00",1254373,2.14,174.4,6.61,1.308,9.38,102.3049,5.182,6.357,20.69,0,110,13.11,5.95,136.4
"2016-01-04 01:41:30",1254374,1.831,175.3,5.417,1.264,8.42,102.2845,5.13,6.275,20.76,0,109.9,13.11,5.90,137.3
"2016-01-04 01:42:00",1254375,0.869,173.1,3.121,0.185,6.612,102.2777,5.112,6.193,20.8,0,109.9,13.16,5.88,135.1
"2016-01-04 01:42:30",1254376,0.76,173.1,1.136,0.04,6.621,102.2766,5.11,6.167,20.99,0,109.9,13.16,5.88,135.1
"2016-01-04 01:43:00",1254377,0.792,174,2.876,0.036,7.11,102.2656,5.082,6.194,20.99,0,109.9,13.16,5.85,136.0
"2016-01-04 01:43:30",1254378,2.288,181.4,7.744,1.468,9.66,102.2527,5.048,6.25,21.12,0,109.9,13.11,5.82,143.4
"2016-01-04 01:44:00",1254379,1.847,179,7.054,1.419,9.47,102.2479,5.036,6.289,21.25,0,109.9,13.11,5.81,141.0
"2016-01-04 01:44:30",1254380,2.547,181.4,7.572,1.408,10.67,102.2423,5.022,6.245,21.3,0,109.9,13.11,5.79,143.4
"2016-01-04 01:45:00",1254381,1.888,177.9,7.489,1.419,9.67,102.2188,4.962,6.18,21.29,0,109.9,13.11,5.73,139.9
"2016-01-04 01:45:30",1254382,0.693,170.4,1.284,0.033,7.084,102.2157,4.954,6.082,21.29,0,109.9,13.16,5.72,132.4
"2016-01-04 01:46:00",1254383,0.69,166.9,0.917,0.033,6.282,102.1959,4.904,5.999,21.32,0,109.9,13.16,5.67,128.9
"2016-01-04 01:46:30",1254384,0.723,163.4,1.318,0.015,6.201,102.1832,4.871,5.972,21.41,0,109.9,13.17,5.64,125.4
"2016-01-04 01:47:00",1254385,1.561,166.4,6.487,1.258,7.779,102.1756,4.852,6,21.49,0,109.9,13.12,5.62,128.4
"2016-01-04 01:47:30",1254386,2.068,164.7,7.186,1.436,9.39,102.1574,4.805,6.147,21.73,0,109.9,13.12,5.57,126.7
"2016-01-04 01:48:00",1254387,2.197,163.9,7.206,1.427,9.21,102.1497,4.786,6.025,21.63,0,109.9,13.13,5.55,125.9
"2016-01-04 01:48:30",1254388,2.232,165.9,7.259,1.447,8.99,102.1342,4.746,6.003,21.74,0,109.9,13.13,5.51,127.9